This demonstration page uses our WeatherBlox Daily Observations layout. Learn more.

Left ArrowRight Arrow

40.92945, -100.16068

Hourly Observations for October 2, 2016

Temp ( °F °C ) Dew Point ( °F °C ) Humidity (%) Winds ( mph kmh ) Pressure ( in mb ) Visibility ( mi km ) Precip ( " mm )
12:15 am 00:15 Clear 56 13.1 46 7.9 71 71 SE 7 11 30.03 1017 10 16 N/A
12:35 am 00:35 Clear 55 13 46 7.8 71 71 SSE 7 11 30.03 1017 10 16 N/A
12:55 am 00:55 Clear 55 12.8 46 8 73 73 SE 5 7 30.03 1017 10 16 N/A
1:15 am 01:15 Clear 55 12.9 46 7.9 72 72 SE 3 6 30.06 1018 10 16 N/A
1:35 am 01:35 Clear 54 12.4 46 7.6 73 73 ESE 5 7 30.03 1017 10 16 N/A
1:55 am 01:55 Clear 49 9.4 44 6.7 83 83 ESE 3 6 30.06 1018 10 16 N/A
2:15 am 02:15 Clear 49 9.3 45 7 86 86 ESE 5 7 30.06 1018 10 16 N/A
2:35 am 02:35 Clear 48 8.9 44 6.6 86 86 E 5 7 30.06 1018 10 16 N/A
2:55 am 02:55 Clear 48 9 44 6.8 86 86 E 5 7 30.06 1018 10 16 N/A
3:15 am 03:15 Clear 47 8.5 44 6.5 87 87 E 5 7 30.06 1018 10 16 N/A
3:35 am 03:35 Clear 47 8.5 43 6.3 86 86 E 6 9 30.06 1018 10 16 N/A
3:55 am 03:55 Clear 47 8.1 44 6.4 89 89 E 3 6 30.06 1018 10 16 N/A
4:15 am 04:15 Clear 47 8.4 43 6.2 86 86 E 6 9 30.06 1018 10 16 N/A
4:35 am 04:35 Clear 47 8.3 44 6.8 90 90 E 5 7 30.06 1018 10 16 N/A
4:55 am 04:55 Clear 47 8.5 44 6.8 89 89 E 3 6 30.06 1018 10 16 N/A
5:15 am 05:15 Clear 47 8.3 45 7 92 92 ESE 5 7 30.06 1018 10 16 N/A
5:35 am 05:35 Clear 47 8.5 45 7 90 90 ESE 5 7 30.06 1018 10 16 N/A
5:55 am 05:55 Clear 47 8.6 45 7.4 92 92 E 5 7 30.06 1018 10 16 N/A
6:15 am 06:15 Clear 48 9 46 7.6 91 91 ESE 5 7 30.06 1018 10 16 N/A
6:35 am 06:35 Clear 48 9.1 46 7.8 92 92 ESE 5 7 30.06 1018 10 16 N/A
6:55 am 06:55 Clear 48 8.8 46 7.6 92 92 ESE 5 7 30.06 1018 10 16 N/A
7:15 am 07:15 Clear 47 8.5 45 7.4 93 93 ESE 5 7 30.06 1018 10 16 N/A
7:35 am 07:35 Clear 47 8.6 46 7.5 93 93 ESE 5 7 30.06 1018 10 16 N/A
7:55 am 07:55 Sunny 48 9 47 8.1 94 94 ESE 6 9 30.06 1018 10 16 N/A
8:15 am 08:15 Sunny 49 9.5 47 8.5 94 94 ESE 5 7 30.06 1018 7 11 N/A
8:35 am 08:35 Sunny 51 10.4 49 9.2 92 92 N N/A 30.09 1019 10 16 N/A
8:55 am 08:55 Sunny 52 11 49 9.4 90 90 SE 6 9 30.06 1018 10 16 N/A
9:15 am 09:15 Sunny 54 12.1 49 9.6 85 85 SSE 6 9 30.06 1018 10 16 N/A
9:35 am 09:35 Sunny 55 12.8 50 9.9 83 83 SSE 6 9 30.06 1018 10 16 N/A
9:55 am 09:55 Sunny 57 14 50 10 77 77 S 8 13 30.03 1017 10 16 N/A
10:15 am 10:15 Sunny 60 15.3 51 10.4 73 73 SSE 7 11 30.03 1017 10 16 N/A
10:35 am 10:35 Sunny 63 17 52 10.9 68 68 SSE 7 11 30.03 1017 10 16 N/A
10:55 am 10:55 Sunny 66 18.7 52 11.2 62 62 SSE 10 17 30.00 1016 10 16 N/A
11:15 am 11:15 Sunny 67 19.7 53 11.4 59 59 SSE 9 15 30.00 1016 10 16 N/A
11:35 am 11:35 Sunny 69 20.6 53 11.7 57 57 SSE 9 15 29.97 1015 10 16 N/A
11:55 am 11:55 Sunny 71 21.5 53 11.7 54 54 SSE 9 15 29.94 1014 10 16 N/A
12:15 pm 12:15 Sunny 72 22.3 54 12 52 52 SSE 9 15 29.94 1014 10 16 N/A
12:35 pm 12:35 Sunny 73 22.9 54 12 50 50 SSE 13 20 29.94 1014 10 16 N/A
12:55 pm 12:55 Sunny 74 23.3 53 11.8 48 48 S 13 20 29.94 1014 10 16 N/A
1:15 pm 13:15 Sunny 75 24.1 54 12 47 47 SSE 12 19 29.91 1013 10 16 N/A
1:35 pm 13:35 Sunny 76 24.5 53 11.8 45 45 SSE 15 24 29.91 1013 10 16 N/A
1:55 pm 13:55 Sunny 77 24.8 53 11.9 45 45 SSE 16 26 29.91 1013 10 16 N/A
2:15 pm 14:15 Sunny 77 25.2 53 11.7 43 43 S 13 20 29.91 1013 10 16 N/A
2:35 pm 14:35 Sunny 78 25.8 53 11.8 42 42 SSE 15 24 29.91 1013 10 16 N/A
2:55 pm 14:55 Sunny 80 26.5 53 11.9 40 40 SSE 16 26 29.88 1012 10 16 N/A
3:15 pm 15:15 Sunny 80 26.6 53 11.7 40 40 S 13 20 29.88 1012 10 16 N/A
3:35 pm 15:35 Sunny 80 26.5 53 11.5 39 39 SSE 16 26 29.88 1012 10 16 N/A
3:55 pm 15:55 Sunny 81 27 53 11.6 38 38 SSE 14 22 29.85 1011 10 16 N/A
4:15 pm 16:15 Sunny 80 26.6 53 11.8 40 40 S 13 20 29.88 1012 10 16 N/A
4:35 pm 16:35 Sunny 80 26.5 53 11.6 39 39 S 17 28 29.88 1012 10 16 N/A
4:55 pm 16:55 Sunny 80 26.4 54 12.1 41 41 SSE 13 20 29.88 1012 10 16 N/A
5:15 pm 17:15 Sunny 79 26.2 54 12.4 42 42 SSE 13 20 29.88 1012 10 16 N/A
5:35 pm 17:35 Sunny 79 26.1 54 12.4 43 43 S 14 22 29.88 1012 10 16 N/A
5:55 pm 17:55 Sunny 78 25.8 55 13 45 45 SSE 13 20 29.85 1011 10 16 N/A
6:15 pm 18:15 Sunny 77 25.2 55 13 47 47 SSE 14 22 29.88 1012 10 16 N/A
6:35 pm 18:35 Sunny 76 24.6 56 13.3 49 49 SSE 13 20 29.88 1012 10 16 N/A
6:55 pm 18:55 Sunny 74 23.5 56 13.5 54 54 SSE 10 17 29.88 1012 10 16 N/A
7:15 pm 19:15 Sunny 73 22.7 56 13.4 56 56 SSE 9 15 29.91 1013 10 16 N/A
7:35 pm 19:35 Clear 72 22 56 13.4 58 58 SE 8 13 29.91 1013 10 16 N/A
7:55 pm 19:55 Clear 71 21.7 56 13.5 60 60 SE 9 15 29.91 1013 10 16 N/A
8:15 pm 20:15 Clear 70 21.3 56 13.5 61 61 SE 8 13 29.91 1013 10 16 N/A
8:35 pm 20:35 Clear 69 20.6 56 13.3 63 63 SE 8 13 29.91 1013 10 16 N/A
8:55 pm 20:55 Clear 68 20.2 56 13.2 64 64 SE 9 15 29.91 1013 10 16 N/A
9:15 pm 21:15 Clear 68 20.1 56 13.1 64 64 SE 10 17 29.91 1013 10 16 N/A
9:35 pm 21:35 Clear 67 19.5 55 13 66 66 SE 10 17 29.94 1014 10 16 N/A
9:55 pm 21:55 Clear 66 19.1 55 13 68 68 SE 8 13 29.94 1014 10 16 N/A
10:15 pm 22:15 Clear 66 18.8 55 12.8 68 68 SE 8 13 29.94 1014 10 16 N/A
10:35 pm 22:35 Clear 65 18.6 55 12.8 69 69 SE 10 17 29.94 1014 10 16 N/A
10:55 pm 22:55 Clear 65 18.2 55 12.7 70 70 SE 8 13 29.94 1014 10 16 N/A
11:15 pm 23:15 Clear 65 18.2 55 12.7 70 70 SE 9 15 29.94 1014 10 16 N/A
11:35 pm 23:35 Clear 65 18.1 55 12.6 70 70 SSE 13 20 29.94 1014 10 16 N/A
11:55 pm 23:55 Partly Cloudy 64 18 55 12.5 70 70 SSE 12 19 29.94 1014 10 16 N/A

Powered by AerisWeather